#timestamp,LO_Frequency,Hit,StdDev 
1608537715.1,286046998.9,P
1608537716.0,286046998.9,P
1608537735.8,286046999.3,P
1608537755.6,286046999.3,Y
1608537775.5,286046998.3,P
1608537795.3,286046998.1,P
1608537815.2,286046998.4,P
1608537835.9,286046999.1,N
1608537855.7,286047000.7,N
1608537875.6,286047000.6,N
1608537895.4,286047003.9,Y
1608537915.2,286047001.8,P
1608537935.1,286047002.5,N
1608537936.0,286047002.5,N
1608537955.8,286047001.8,N
1608537975.7,286047001.8,N
1608537995.5,286047006.0,Y
1608538015.3,286047004.8,P
1608538035.2,286047003.3,N
1608538055.0,286047003.3,N
1608538055.9,286047003.3,N
1608538075.7,286047002.9,N
1608538095.6,286047003.6,Y
1608538115.4,286047000.3,P
1608538135.3,286047000.2,N
1608538155.1,286047000.9,N
1608538156.0,286047000.9,N
1608538175.8,286047000.8,N
1608538195.7,286047002.1,N
1608538215.5,286047003.5,Y
1608538235.4,286047000.1,P
1608538255.2,286047001.6,N
1608538275.0,286047003.7,P
1608538275.9,286047003.7,N
1608538295.8,286047003.1,N
1608538315.6,286047003.1,N
1608538335.4,286047007.4,Y
1608538355.3,286047002.8,P
1608538375.1,286047000.6,N
1608538395.9,286046999.9,N
1608538415.7,286047001.8,N
1608538435.5,286047003.9,Y
1608538455.4,286047001.3,P
1608538475.2,286047004.7,P
1608538495.0,286047007.5,P
1608538495.9,286047007.5,N
1608538515.8,286047005.6,N
1608538535.6,286047003.7,N
1608538555.5,286047001.6,N
1608538575.3,286047003.9,N
1608538595.1,286047005.3,N
1608538615.9,286047003.6,N
1608538635.7,286047003.5,N
1608538655.5,286047003.5,N
1608538675.4,286047003.7,N
1608538695.2,286047004.4,N
1608538715.0,286047002.0,N
1608538716.0,286047002.0,N
1608538735.8,286047001.6,N
1608538755.6,286047003.9,N
1608538775.5,286047007.1,Y
1608538795.3,286047005.9,P
1608538815.1,286047005.1,P
1608538835.9,286047006.9,P
1608538855.7,286047007.6,Y
1608538875.6,286047004.1,P
1608538895.4,286047002.6,P
1608538915.2,286046999.3,N
1608538935.1,286047000.8,N
1608538936.0,286047000.8,N
1608538955.8,286047001.2,N
1608538975.6,286046997.7,N
1608538995.5,286046996.9,N
1608539015.3,286046997.0,N
1608539035.2,286046995.3,N
1608539055.9,286046997.4,N
1608539075.7,286046998.6,N
1608539095.6,286047001.3,N
1608539115.4,286047003.6,N
1608539135.2,286047002.2,N
1608539155.1,286047003.2,N
1608539156.0,286047003.2,N
1608539175.8,286047002.1,N
1608539195.7,286047002.0,N
1608539215.5,286047000.0,N
1608539265.4,286047002.4,E
1608539275.3,286047000.1,N
1608539295.1,286047000.5,P
1608539315.9,286046997.7,P
1608539335.7,286046995.0,Y
1608539355.5,286046995.7,P
1608539375.4,286046995.7,N
1608539395.2,286046996.8,N
1608539415.0,286046997.3,N
1608539415.9,286046997.3,N
1608539435.8,286046997.3,N
1608539455.6,286046998.8,N
1608539475.5,286046997.7,N
1608539495.3,286046998.5,N
1608539515.1,286046999.2,N
1608539535.9,286046998.9,N
1608539555.7,286046998.6,N
1608539575.5,286047001.2,N
1608539595.4,286047000.8,N
1608539615.2,286047001.1,N
1608539635.1,286047002.1,N
1608539636.0,286047002.1,N
1608539655.8,286047007.3,Y
1608539675.6,286047006.1,P
1608539695.5,286047009.2,N
1608539715.3,286047006.2,N
1608539735.2,286047010.2,N
1608539755.9,286047011.7,N
1608539775.7,286047011.2,N
1608539795.6,286047012.7,Y
1608539815.4,286047006.8,P
1608539835.2,286047010.8,P
1608539855.1,286047010.4,P
1608539856.0,286047010.4,Y
1608539875.8,286047000.2,P
1608539895.7,286047002.7,N
1608539915.5,286047003.1,N
1608539935.3,286047005.0,N
1608539955.2,286047004.5,N
1608539975.0,286047008.4,Y
1608539975.9,286047008.4,P
1608539995.7,286047001.3,N
1608540015.6,286047004.9,N
1608540035.4,286047003.3,N
1608540055.3,286047007.3,Y
1608540075.1,286047002.7,P
1608540076.0,286047002.7,P
1608540095.8,286047008.6,P
1608540115.7,286046999.5,N
1608540135.5,286047004.5,N
1608540155.3,286047002.8,N
1608540175.2,286046996.7,N
1608540195.0,286046994.9,N
1608540195.9,286046994.9,N
1608540215.8,286046996.4,N
1608540235.6,286046994.8,N
1608540255.4,286046993.2,N
1608540275.3,286046992.8,N
1608540295.1,286046994.8,N
1608540315.8,286046996.0,N
1608540335.7,286046993.9,N
1608540355.5,286046993.4,N
1608540375.4,286046994.6,N
1608540395.2,286046993.8,N
1608540415.0,286046996.2,N
1608540415